TimeCDT,TemperatureF,Dew PointF,Humidity,Sea Level PressureIn,VisibilityMPH,Wind Direction,Wind SpeedMPH,Gust SpeedMPH,PrecipitationIn,Events,Conditions,WindDirDegrees,DateUTC
12:15 AM,52.7,52.7,100,29.86,0.2,ENE,8.1,-,N/A,Fog,Fog,70,2013-05-28 05:15:00
12:35 AM,52.7,52.7,100,29.85,0.2,ENE,8.1,-,N/A,Fog,Fog,70,2013-05-28 05:35:00
12:55 AM,52.7,52.7,100,29.84,0.2,ENE,9.2,-,N/A,Fog,Fog,60,2013-05-28 05:55:00
1:15 AM,52.9,52.9,100,29.82,0.2,ENE,6.9,-,N/A,Fog,Fog,70,2013-05-28 06:15:00
1:35 AM,52.7,52.7,100,29.81,0.2,ENE,9.2,-,N/A,,Drizzle,70,2013-05-28 06:35:00
1:55 AM,52.7,52.7,100,29.81,0.2,ENE,6.9,-,N/A,Thunderstorm,Drizzle,70,2013-05-28 06:55:00
2:15 AM,52.9,52.9,100,29.81,0.2,NE,6.9,-,0.02,Rain-Thunderstorm,Thunderstorms and Rain,50,2013-05-28 07:15:00
2:35 AM,52.9,52.9,100,29.79,0.2,ENE,6.9,-,0.03,,Light Drizzle,70,2013-05-28 07:35:00
2:55 AM,52.9,52.9,100,29.79,0.2,NE,9.2,-,0.03,Fog,Fog,50,2013-05-28 07:55:00
3:15 AM,52.9,52.9,100,29.79,0.5,ENE,6.9,-,N/A,Fog,Fog,60,2013-05-28 08:15:00
3:35 AM,53.1,53.1,100,29.78,0.5,ENE,6.9,-,N/A,Fog,Fog,70,2013-05-28 08:35:00
3:55 AM,53.1,53.1,100,29.78,0.5,ENE,6.9,-,N/A,,Light Drizzle,60,2013-05-28 08:55:00
4:15 AM,53.4,53.4,100,29.77,0.2,ENE,8.1,-,N/A,Rain,Light Rain,60,2013-05-28 09:15:00
4:35 AM,53.6,53.6,100,29.76,0.2,NE,6.9,-,0.01,Rain-Thunderstorm,Light Thunderstorms and Rain,50,2013-05-28 09:35:00
4:55 AM,53.8,53.8,100,29.76,0.2,ENE,6.9,-,0.05,Rain-Thunderstorm,Light Thunderstorms and Rain,70,2013-05-28 09:55:00
5:15 AM,54.0,54.0,100,29.75,0.5,ENE,5.8,-,0.04,Rain-Thunderstorm,Light Thunderstorms and Rain,60,2013-05-28 10:15:00
5:35 AM,54.1,54.1,100,29.75,0.5,ENE,8.1,-,0.04,Fog,Fog,70,2013-05-28 10:35:00
5:55 AM,54.5,54.5,100,29.77,0.5,North,5.8,-,0.22,Rain-Thunderstorm,Thunderstorms and Rain,10,2013-05-28 10:55:00
6:15 AM,54.5,54.5,100,29.77,0.2,NNE,4.6,-,0.16,Rain-Thunderstorm,Rain,20,2013-05-28 11:15:00
6:35 AM,54.7,54.7,100,29.76,0.2,East,5.8,-,0.17,Rain,Light Rain,80,2013-05-28 11:35:00
6:55 AM,55.4,55.4,100,29.76,0.8,East,5.8,-,0.18,Rain,Rain,90,2013-05-28 11:55:00
7:15 AM,55.6,55.6,100,29.76,1.8,Calm,Calm,-,0.03,Rain,Rain,0,2013-05-28 12:15:00
7:35 AM,55.8,55.8,100,29.75,0.8,NE,4.6,-,0.05,Rain,Rain,40,2013-05-28 12:35:00
7:55 AM,55.9,55.9,100,29.75,0.2,NE,4.6,-,0.05,,Drizzle,40,2013-05-28 12:55:00
8:15 AM,56.3,56.3,100,29.75,0.2,ENE,3.5,-,N/A,,Light Drizzle,60,2013-05-28 13:15:00
8:35 AM,56.7,56.7,100,29.73,0.2,ENE,4.6,-,N/A,Fog,Fog,70,2013-05-28 13:35:00
8:55 AM,57.4,57.4,100,29.74,0.2,East,3.5,-,N/A,Fog,Fog,80,2013-05-28 13:55:00
9:15 AM,58.1,58.1,100,29.74,0.2,East,3.5,-,N/A,Fog,Fog,90,2013-05-28 14:15:00
9:35 AM,60.8,60.8,100,29.74,0.5,Calm,Calm,-,N/A,Fog,Fog,0,2013-05-28 14:35:00
9:55 AM,63.5,63.5,100,29.73,4.0,South,6.9,-,N/A,,Overcast,180,2013-05-28 14:55:00
10:15 AM,63.9,63.9,100,29.73,5.0,South,6.9,-,N/A,,Overcast,180,2013-05-28 15:15:00
10:35 AM,64.9,64.9,100,29.73,5.0,South,6.9,-,N/A,,Overcast,190,2013-05-28 15:35:00
10:55 AM,65.5,65.5,100,29.74,5.0,SSW,11.5,17.3,N/A,,Overcast,200,2013-05-28 15:55:00
11:15 AM,66.7,66.7,100,29.74,7.0,SSW,9.2,-,N/A,,Overcast,210,2013-05-28 16:15:00
11:35 AM,68.5,68.4,99,29.75,7.0,SSW,12.7,-,N/A,,Overcast,210,2013-05-28 16:35:00
11:55 AM,68.7,68.0,98,29.75,10.0,SSW,13.8,-,N/A,,Overcast,210,2013-05-28 16:55:00
12:15 PM,70.2,68.7,95,29.75,10.0,SW,10.4,-,N/A,,Overcast,220,2013-05-28 17:15:00
12:35 PM,69.8,68.7,96,29.75,10.0,SSW,10.4,-,N/A,,Overcast,200,2013-05-28 17:35:00
12:55 PM,68.9,68.5,99,29.75,10.0,SW,8.1,-,N/A,,Overcast,220,2013-05-28 17:55:00
1:15 PM,69.1,69.1,100,29.75,7.0,SSW,8.1,-,N/A,,Light Drizzle,200,2013-05-28 18:15:00
1:35 PM,67.5,67.5,100,29.75,1.8,SSW,9.2,-,0.01,,Drizzle,200,2013-05-28 18:35:00
1:55 PM,67.1,67.1,100,29.75,2.0,SSW,9.2,-,0.01,,Light Drizzle,210,2013-05-28 18:55:00
2:15 PM,67.3,67.3,100,29.75,3.0,SSW,5.8,-,N/A,,Light Drizzle,210,2013-05-28 19:15:00
2:35 PM,68.0,68.0,100,29.75,5.0,SSW,6.9,-,N/A,,Overcast,210,2013-05-28 19:35:00
2:55 PM,68.9,68.9,100,29.75,10.0,SSW,6.9,-,N/A,,Overcast,200,2013-05-28 19:55:00
3:15 PM,69.4,69.3,99,29.75,10.0,SSW,5.8,-,N/A,,Overcast,200,2013-05-28 20:15:00
3:35 PM,70.2,69.8,99,29.75,10.0,South,8.1,-,N/A,,Overcast,180,2013-05-28 20:35:00
3:55 PM,71.4,71.2,99,29.74,10.0,South,6.9,-,N/A,,Overcast,190,2013-05-28 20:55:00
4:15 PM,72.1,71.2,97,29.74,10.0,SSW,8.1,-,N/A,,Overcast,200,2013-05-28 21:15:00
4:35 PM,72.5,71.8,98,29.74,10.0,SW,8.1,-,N/A,,Overcast,220,2013-05-28 21:35:00
4:55 PM,72.5,72.0,98,29.74,10.0,SW,5.8,-,N/A,,Overcast,220,2013-05-28 21:55:00
5:15 PM,74.5,72.7,94,29.73,10.0,SSW,5.8,-,N/A,,Mostly Cloudy,200,2013-05-28 22:15:00
5:35 PM,74.3,73.0,96,29.74,10.0,SSW,6.9,-,N/A,,Overcast,210,2013-05-28 22:35:00
5:55 PM,73.9,73.2,98,29.74,7.0,SW,4.6,-,N/A,,Overcast,220,2013-05-28 22:55:00
6:15 PM,73.8,73.4,99,29.74,7.0,West,5.8,-,N/A,,Overcast,270,2013-05-28 23:15:00
6:35 PM,72.5,72.5,100,29.73,7.0,NW,8.1,-,N/A,,Overcast,310,2013-05-28 23:35:00
6:55 PM,71.6,71.6,100,29.72,7.0,North,3.5,-,N/A,,Overcast,350,2013-05-28 23:55:00
7:15 PM,70.5,70.5,100,29.70,5.0,Calm,Calm,-,N/A,Thunderstorm,Scattered Clouds,0,2013-05-29 00:15:00
7:35 PM,70.2,70.2,100,29.72,5.0,Calm,Calm,-,N/A,,Clear,0,2013-05-29 00:35:00
7:55 PM,70.7,70.7,100,29.71,5.0,Calm,Calm,-,N/A,,Mostly Cloudy,0,2013-05-29 00:55:00
8:15 PM,70.9,70.9,100,29.73,7.0,SSW,3.5,-,N/A,,Scattered Clouds,200,2013-05-29 01:15:00
8:35 PM,70.2,70.2,100,29.75,5.0,West,9.2,-,N/A,,Mostly Cloudy,270,2013-05-29 01:35:00
8:55 PM,70.7,70.7,100,29.76,10.0,West,6.9,-,N/A,,Scattered Clouds,270,2013-05-29 01:55:00
9:15 PM,68.9,68.9,100,29.77,7.0,WSW,3.5,-,N/A,,Scattered Clouds,240,2013-05-29 02:15:00
9:35 PM,69.3,69.3,100,29.78,7.0,SSE,5.8,-,N/A,,Overcast,160,2013-05-29 02:35:00
9:55 PM,69.1,69.1,100,29.77,7.0,Calm,Calm,-,N/A,,Mostly Cloudy,0,2013-05-29 02:55:00
10:15 PM,68.2,68.2,100,29.78,2.5,NNE,3.5,-,N/A,,Mostly Cloudy,20,2013-05-29 03:15:00
10:35 PM,68.0,68.0,100,29.78,3.0,NE,3.5,-,N/A,,Mostly Cloudy,50,2013-05-29 03:35:00
10:55 PM,68.4,68.4,100,29.80,3.0,Calm,Calm,-,N/A,,Mostly Cloudy,0,2013-05-29 03:55:00
11:15 PM,67.6,67.6,100,29.79,2.5,Calm,Calm,-,N/A,,Mostly Cloudy,0,2013-05-29 04:15:00
11:35 PM,67.5,67.5,100,29.78,2.0,South,5.8,-,N/A,,Mostly Cloudy,170,2013-05-29 04:35:00
11:55 PM,67.3,67.3,100,29.78,2.0,SSW,4.6,-,N/A,,Clear,210,2013-05-29 04:55:00